Home   Weather   Timmins   Past weeks
Flag for Canada

Past Weather in Timmins, Ontario, Canada — Yesterday and Last 2 Weeks

Now
39 °F

Partly sunny.


Feels Like: 39 °F
Forecast: 65 / 47 °F
Wind: 2 mph from North

Location: Timmins

Current Time: Jul 23, 2019 at 7:24:17 am

Latest Report: Jul 23, 2019 at 6:00 am


Visibility: 15 mi

Pressure: 29.97 "Hg

Humidity: 100%

Dew Point: 39 °F

Location of TimminsLocation

Past Weather in Timmins — Graph

°F

Timmins Temperature Yesterday

Maximum temperature yesterday: 73 °F (at 4:00 pm)
Minimum temperature yesterday: 43 °F (at 1:00 am)
Average temperature yesterday: 59 °F

High & Low Weather Summary for the Past Weeks

 TemperatureHumidityPressure
High86 °F (Jul 9, 5:00 pm)100% (Jul 8, 6:00 am)30.14 "Hg (Jul 8, 6:00 am)
Low39 °F (Jul 12, 5:29 am)27% (Jul 22, 5:00 pm)29.59 "Hg (Jul 19, 3:00 am)
Average66 °F72%29.86 "Hg
* Reported Jul 8 6:00 am — Jul 23 6:00 am, Timmins. Weather by CustomWeather, © 2019

Note: Actual official high and low records may vary slightly from our data, if they occured in-between our weather recording intervals... More about our weather records

Advertising

Timmins Weather History for the Previous 24 Hours

Scroll right to see more
 ConditionsComfort  
Time TempWeatherWind HumidityBarometerVisibility
6:00 am
Tue, Jul 23
39 °FPartly sunny.2 mph100%29.97 "Hg15 mi
5:00 am41 °FPassing clouds.2 mph100%29.96 "Hg15 mi
4:00 am41 °FClear.3 mph100%29.95 "Hg15 mi
3:00 am41 °FClear.2 mph100%29.95 "Hg15 mi
2:00 am45 °FClear.2 mph100%29.96 "Hg15 mi
1:00 am45 °FPassing clouds.No wind100%29.95 "Hg15 mi
12:00 am46 °FPassing clouds.No wind93%29.95 "Hg15 mi
11:00 pm
Mon, Jul 22
50 °FPassing clouds.3 mph82%29.95 "Hg15 mi
10:00 pm54 °FPassing clouds.5 mph72%29.95 "Hg15 mi
9:00 pm59 °FScattered clouds.2 mph63%29.93 "Hg15 mi
8:00 pm66 °FPartly sunny.5 mph40%29.93 "Hg15 mi
7:00 pm68 °FPartly sunny.6 mph38%29.91 "Hg15 mi
6:00 pm72 °FPartly sunny.13 mph31%29.91 "Hg15 mi
5:00 pm73 °FPartly sunny.13 mph27%29.90 "Hg15 mi
4:00 pm73 °FBroken clouds.13 mph31%29.90 "Hg15 mi
3:00 pm72 °FBroken clouds.14 mph31%29.90 "Hg15 mi
2:00 pm72 °FScattered clouds.13 mph33%29.90 "Hg15 mi
1:00 pm70 °FPartly sunny.13 mph40%29.91 "Hg15 mi
12:00 pm68 °FPartly sunny.7 mph49%29.93 "Hg15 mi
11:00 am66 °FPassing clouds.10 mph56%29.93 "Hg15 mi
10:00 am64 °FPassing clouds.5 mph60%29.95 "Hg15 mi
9:00 am61 °FPassing clouds.8 mph63%29.94 "Hg15 mi
8:00 am57 °FScattered clouds.6 mph67%29.95 "Hg15 mi
7:00 am50 °FScattered clouds.5 mph88%29.95 "Hg15 mi
Weather by CustomWeather, © 2019

See weather overview